NOAA 17 DEB, 48737

Orbit data source: Space-Track

NOAA 17 DEB, 48737 is space debris in SSO originally from a launch on Mon, 24 Jun 2002 UTC launched from the Air Force Western Test Range (AFWTR). Debris objects in space refer to the collection of defunct objects orbiting the Earth. Examples of debris include non-operational satellites, rocket bodies, and fragments generated from explosions, collisions, or faulty payload assembly.

Loading next visibility...
Identifier
48737, 2002-032BW
Orbit
SSO
Country
Flag of USUS
Related business
Manufacturer
Unknown
Mission
Spacecraft
Bus & Motor
Unknown
Mass
Unknown
Launch date (UTC)
2002-06-24 (24 years ago)
Launch vehicle
Unknown
Launch site
Air Force Western Test Range (AFWTR)
Object type
Payload
Rocket body
Debris
Shape & HBR
Unknown shape, 0.1 m
Radar Cross Section
Medium (>0.1 m² and <1 m²)

Expand to show TLE details & history
Last TLE update: 2 days ago

TLE from 2 days ago
0 NOAA 17 DEB
1 48737U 02032BW  26171.44729088  .00078954  00000-0  36878-2 0  9992
2 48737  98.7051 238.9889 0013181 224.5370 135.4802 15.19403194276729
Epoch: 2026-06-20T10:44Z
TLE epoch observation values (Epoch: 2026-06-20T10:44:05.932Z)
Latitude
-0.00003°
Longitude
169.30241°
Altitude
517.171 km
Speed
7.601 km/s
True Right ascension
15h 55m 57s
True Declination
0° 00' 00"
Sunlit
Object was in full shadow at epoch
Visualization orbit readout
Latitude
Unknown
Longitude
Unknown
Altitude
Unknown
Speed
Unknown
Apparent Right ascension
Unknown
Apparent Declination
Unknown
Sunlit
N/A
Visualization observer readout
Local Sidereal Time
02:14:11
Azimuth
Unknown
Elevation
Unknown
Doppler factor
Unknown
Orbital elements
Apogee altitude
513.742 km
Perigee altitude
495.598 km
Semi-major axis
6,882.807 km
Eccentricity
0.00132
Inclination
98.7051°
RAAN
238.9889°
Arg. of periapsis
224.537°
True anomaly
135.58598°
Mean anomaly
135.4802°
Eccentric anomaly
135.5331°
Mean motion
3.80097 °/min
Orbital period
94.71 mins
BSTAR
0.0036878
Loading maneuver chart data...
Computing Atmospheric mass density...

Documentation

Showing up to 5 results
|